TimeEDT,TemperatureF,Dew PointF,Humidity,Sea Level PressureIn,VisibilityMPH,Wind Direction,Wind SpeedMPH,Gust SpeedMPH,PrecipitationIn,Events,Conditions,WindDirDegrees,DateUTC
12:15 AM,71.6,64.4,78,29.86,10.0,SW,4.6,-,N/A,,Scattered Clouds,230,2013-09-21 04:15:00
12:35 AM,71.6,64.4,78,29.86,10.0,WSW,4.6,-,N/A,,Drizzle,240,2013-09-21 04:35:00
12:55 AM,69.8,64.4,83,29.86,10.0,WSW,5.8,-,N/A,,Drizzle,240,2013-09-21 04:55:00
1:15 AM,69.8,64.4,83,29.86,10.0,WSW,6.9,-,N/A,,Drizzle,240,2013-09-21 05:15:00
1:35 AM,69.8,66.2,88,29.86,10.0,SW,4.6,-,N/A,Rain,Light Rain,230,2013-09-21 05:35:00
1:55 AM,68.0,66.2,94,29.86,10.0,WSW,4.6,-,0.01,Rain,Rain,240,2013-09-21 05:55:00
2:15 AM,68.0,66.2,94,29.86,7.0,WSW,5.8,-,0.01,Rain,Rain,250,2013-09-21 06:15:00
2:35 AM,68.0,66.2,94,29.85,7.0,WSW,5.8,-,0.04,Rain,Light Rain,240,2013-09-21 06:35:00
2:55 AM,68.0,66.2,94,29.83,7.0,Calm,Calm,-,0.08,Rain,Light Rain,0,2013-09-21 06:55:00
3:15 AM,68.0,66.2,94,29.82,5.0,Calm,Calm,-,0.01,Rain,Light Rain,0,2013-09-21 07:15:00
3:35 AM,68.0,66.2,94,29.81,7.0,SW,4.6,-,0.02,Rain,Light Rain,230,2013-09-21 07:35:00
3:55 AM,68.0,66.2,94,29.81,7.0,SW,5.8,-,0.03,Rain,Light Rain,230,2013-09-21 07:55:00
4:15 AM,68.0,64.4,88,29.79,10.0,WSW,6.9,17.3,0.01,Rain,Light Rain,240,2013-09-21 08:15:00
4:35 AM,68.0,66.2,94,29.78,7.0,SW,4.6,-,0.02,Rain,Light Rain,220,2013-09-21 08:35:00
4:55 AM,68.0,66.2,94,29.76,7.0,SSW,6.9,-,0.04,Rain,Light Rain,210,2013-09-21 08:55:00
5:15 AM,68.0,66.2,94,29.74,5.0,SSW,8.1,-,0.03,Rain,Rain,200,2013-09-21 09:15:00
5:35 AM,68.0,66.2,94,29.73,7.0,South,8.1,-,0.04,Rain,Light Rain,180,2013-09-21 09:35:00
5:55 AM,68.0,66.2,94,29.72,7.0,SSW,6.9,-,0.06,Rain,Light Rain,210,2013-09-21 09:55:00
6:15 AM,64.4,64.4,100,29.76,1.8,NNW,9.2,20.7,0.36,Rain,Heavy Rain,330,2013-09-21 10:15:00
6:35 AM,64.4,62.6,94,29.76,4.0,NNW,4.6,-,0.54,Rain,Heavy Rain,330,2013-09-21 10:35:00
6:55 AM,64.4,62.6,94,29.76,3.0,North,3.5,-,0.68,Rain,Heavy Rain,360,2013-09-21 10:55:00
7:15 AM,62.6,62.6,100,29.76,3.0,North,5.8,-,0.11,Rain,Heavy Rain,360,2013-09-21 11:15:00
7:35 AM,62.6,62.6,100,29.78,4.0,North,12.7,17.3,0.22,Rain,Heavy Rain,350,2013-09-21 11:35:00
7:55 AM,62.6,62.6,100,29.78,7.0,NNE,6.9,-,0.29,Rain,Rain,20,2013-09-21 11:55:00
8:15 AM,62.6,62.6,100,29.76,10.0,ENE,4.6,-,0.03,Rain,Light Rain,70,2013-09-21 12:15:00
8:35 AM,62.6,62.6,100,29.76,10.0,ESE,5.8,-,0.04,,Drizzle,110,2013-09-21 12:35:00
8:55 AM,62.6,62.6,100,29.79,10.0,NW,4.6,-,0.05,Rain,Light Rain,320,2013-09-21 12:55:00
9:15 AM,62.6,62.6,100,29.80,10.0,WNW,5.8,-,N/A,Rain,Light Rain,300,2013-09-21 13:15:00
9:35 AM,62.6,62.6,100,29.79,10.0,Calm,Calm,-,0.01,Rain,Light Rain,0,2013-09-21 13:35:00
9:55 AM,62.6,62.6,100,29.80,10.0,NW,4.6,-,0.01,,Overcast,310,2013-09-21 13:55:00
10:15 AM,62.6,62.6,100,29.82,10.0,West,3.5,-,N/A,,Overcast,270,2013-09-21 14:15:00
10:35 AM,62.6,62.6,100,29.80,10.0,Calm,Calm,-,N/A,,Scattered Clouds,0,2013-09-21 14:35:00
10:55 AM,62.6,62.6,100,29.81,10.0,Calm,Calm,-,N/A,,Mostly Cloudy,0,2013-09-21 14:55:00
11:15 AM,64.4,62.6,94,29.81,10.0,WSW,3.5,-,N/A,,Overcast,250,2013-09-21 15:15:00
11:35 AM,62.6,62.6,100,29.82,3.0,NW,6.9,-,N/A,,Heavy Drizzle,320,2013-09-21 15:35:00
11:55 AM,60.8,60.8,100,29.82,3.0,North,5.8,-,0.01,,Light Drizzle,350,2013-09-21 15:55:00
12:15 PM,60.8,60.8,100,29.82,5.0,North,5.8,-,N/A,,Overcast,350,2013-09-21 16:15:00
12:35 PM,60.8,60.8,100,29.83,10.0,NW,6.9,-,N/A,,Overcast,320,2013-09-21 16:35:00
12:55 PM,60.8,60.8,100,29.83,7.0,NW,5.8,-,N/A,,Overcast,310,2013-09-21 16:55:00
1:15 PM,62.6,60.8,94,29.83,10.0,NNW,4.6,-,N/A,,Overcast,340,2013-09-21 17:15:00
1:35 PM,62.6,60.8,94,29.83,10.0,NW,6.9,-,N/A,,Overcast,310,2013-09-21 17:35:00
1:55 PM,64.4,60.8,88,29.83,10.0,North,10.4,-,N/A,,Overcast,350,2013-09-21 17:55:00
2:15 PM,68.0,59.0,73,29.83,10.0,WNW,8.1,-,N/A,,Overcast,300,2013-09-21 18:15:00
2:35 PM,64.4,57.2,77,29.82,10.0,North,9.2,-,N/A,,Overcast,350,2013-09-21 18:35:00
2:55 PM,68.0,55.4,64,29.82,10.0,NW,8.1,-,N/A,,Scattered Clouds,320,2013-09-21 18:55:00
3:15 PM,69.8,55.4,60,29.82,10.0,NW,4.6,-,N/A,,Mostly Cloudy,320,2013-09-21 19:15:00
3:35 PM,68.0,55.4,64,29.82,10.0,North,6.9,-,N/A,,Overcast,350,2013-09-21 19:35:00
3:55 PM,69.8,53.6,56,29.82,10.0,NNW,9.2,-,N/A,,Mostly Cloudy,340,2013-09-21 19:55:00
4:15 PM,68.0,53.6,60,29.82,10.0,North,5.8,-,N/A,,Mostly Cloudy,360,2013-09-21 20:15:00
4:35 PM,69.8,53.6,56,29.82,10.0,NNE,4.6,-,N/A,,Mostly Cloudy,20,2013-09-21 20:35:00
4:55 PM,68.0,53.6,60,29.82,10.0,NW,6.9,-,N/A,,Scattered Clouds,320,2013-09-21 20:55:00
5:15 PM,69.8,53.6,56,29.82,10.0,North,6.9,-,N/A,,Scattered Clouds,10,2013-09-21 21:15:00
5:35 PM,69.8,53.6,56,29.82,10.0,NNE,4.6,-,N/A,,Scattered Clouds,20,2013-09-21 21:35:00
5:55 PM,69.8,53.6,56,29.82,10.0,North,6.9,-,N/A,,Scattered Clouds,10,2013-09-21 21:55:00
6:15 PM,68.0,53.6,60,29.83,10.0,North,5.8,-,N/A,,Clear,10,2013-09-21 22:15:00
6:35 PM,68.0,53.6,60,29.83,10.0,North,4.6,-,N/A,,Clear,350,2013-09-21 22:35:00
6:55 PM,66.2,53.6,64,29.84,10.0,NNW,3.5,-,N/A,,Clear,340,2013-09-21 22:55:00
7:15 PM,64.4,53.6,68,29.84,10.0,NNW,3.5,-,N/A,,Clear,330,2013-09-21 23:15:00
7:35 PM,60.8,53.6,77,29.84,10.0,NNW,4.6,-,N/A,,Clear,330,2013-09-21 23:35:00
7:55 PM,60.8,53.6,77,29.84,10.0,NNW,3.5,-,N/A,,Clear,340,2013-09-21 23:55:00
8:15 PM,57.2,53.6,88,29.85,10.0,Calm,Calm,-,N/A,,Clear,0,2013-09-22 00:15:00
8:35 PM,55.4,53.6,94,29.86,10.0,WNW,3.5,-,N/A,,Clear,300,2013-09-22 00:35:00
8:55 PM,55.4,53.6,94,29.86,10.0,NW,3.5,-,N/A,,Clear,320,2013-09-22 00:55:00
9:15 PM,53.6,53.6,100,29.87,10.0,NW,3.5,-,N/A,,Clear,310,2013-09-22 01:15:00
9:35 PM,53.6,53.6,100,29.87,10.0,NW,4.6,-,N/A,,Clear,310,2013-09-22 01:35:00
9:55 PM,53.6,53.6,100,29.87,10.0,NW,4.6,-,N/A,,Clear,310,2013-09-22 01:55:00
10:15 PM,53.6,51.8,94,29.88,10.0,NW,4.6,-,N/A,,Clear,310,2013-09-22 02:15:00
10:35 PM,53.6,51.8,94,29.88,10.0,NW,3.5,-,N/A,,Scattered Clouds,320,2013-09-22 02:35:00
10:55 PM,55.4,51.8,88,29.88,10.0,NNW,4.6,-,N/A,,Mostly Cloudy,330,2013-09-22 02:55:00
11:15 PM,53.6,51.8,94,29.88,10.0,NNW,4.6,-,N/A,,Scattered Clouds,330,2013-09-22 03:15:00
11:35 PM,55.4,50.0,82,29.89,10.0,NNW,4.6,-,N/A,,Clear,340,2013-09-22 03:35:00
11:55 PM,55.4,50.0,82,29.89,10.0,NNW,3.5,-,N/A,,Clear,340,2013-09-22 03:55:00